Location: Newark
(20.0000°S, 47.0000°E)
Time: 08:11:42
(UTC+00:00)

N. Korean satellite - Pass Details

Date: 25 March 2019
Orbit: 457 x 508 km, 97.2° (Epoch: 20 April)

Event Time Altitude Azimuth Distance (km) Brightness Sun altitude
Rises 02:06:06 0° 25° (NNE) 2,573 10.6 -12.8°
Reaches altitude 10° 02:08:14 10° 33° (NNE) 1,704 9.7 -12.3°
Maximum altitude 02:11:41 40° 103° (ESE) 761 8.2 -11.5°
Drops below altitude 10° 02:15:13 10° 173° (S) 1,737 9.5 -10.7°
Sets 02:17:24 0° 180° (S) 2,631 10.3 -10.1°
